Roswell, NM

9:55 PM MDT on April 28, 2017 (GMT -0600)
Roswell Industrial

Weather History for KROW - February, 2014

Change the Weather History Date:

Saturday, February 22, 2014

  Actual Average Record
Temperature  
Mean Temperature 52 °F 47 °F  
Max Temperature 75 °F 62 °F 85 °F (1996)
Min Temperature 29 °F 32 °F 6 °F (1964)
Degree Days  
Heating Degree Days 13 18  
Month to date heating degree days 424 440  
Since 1 July heating degree days 2621 2606  
Cooling Degree Days 0 0  
Month to date cooling degree days 0 0  
Year to date cooling degree days 0 0  
Growing Degree Days 2 (Base 50)    
Moisture  
Dew Point 7 °F    
Average Humidity 21    
Maximum Humidity 34    
Minimum Humidity 7    
Precipitation  
Precipitation 0.00 in 0.02 in 0.96 in (1923)
Month to date precipitation 0.02 0.33  
Year to date precipitation 0.02 0.71  
Sea Level Pressure  
Sea Level Pressure 29.81 in    
Wind  
Wind Speed 5 mph (North)    
Max Wind Speed 13 mph    
Max Gust Speed 16 mph    
Visibility 10 miles    
Events      
T = Trace of Precipitation, MM = Missing Value Source: NWS Daily Summary

Daily Weather History Graph

Daily Weather History Graph

Search for Another Location

Airport or City:

Trip Planner

Search our weather history database for the weather conditions in past years. The results will help you decide how hot, cold, wet, or windy it might be!

Date:

Astronomy

Feb. 22, 2014 Rise Set
Actual Time 6:34 AM MST 5:49 PM MST
Civil Twilight 6:09 AM MST 6:14 PM MST
Nautical Twilight 5:40 AM MST 6:43 PM MST
Astronomical Twilight 5:11 AM MST 7:11 PM MST
Moon 12:25 AM MST (2/22) 11:09 AM MST (2/22)
Length of Visible Light 12h 05m
Length of Day
11h 14m
Waning Gibbous, 49% of the Moon is Illuminated
Feb 22
Waning Gibbous
Mar 1
New
Mar 8
First Quarter
Mar 16
Full
Mar 23
Last Quarter

Hourly Weather History & Observations

Time (MST) Temp. Windchill Dew Point Humidity Pressure Visibility Wind Dir Wind Speed Gust Speed Precip Events Conditions
12:51 AM 42.1 °F 38.4 °F 3.0 °F 20% 29.84 in 10.0 mi West 5.8 mph - N/A   Clear
1:51 AM 39.9 °F 35.8 °F 3.0 °F 21% 29.83 in 10.0 mi WNW 5.8 mph - N/A   Clear
2:51 AM 37.9 °F 35.5 °F 3.9 °F 24% 29.82 in 10.0 mi North 3.5 mph - N/A   Clear
3:51 AM 36.0 °F - 3.9 °F 26% 29.83 in 10.0 mi Calm Calm - N/A   Clear
4:51 AM 36.0 °F 30.3 °F 3.9 °F 26% 29.84 in 10.0 mi North 6.9 mph - N/A   Clear
5:51 AM 36.0 °F 29.6 °F 3.9 °F 26% 29.87 in 10.0 mi North 8.1 mph - N/A   Clear
6:51 AM 28.9 °F - 3.0 °F 33% 29.92 in 10.0 mi Calm Calm - N/A   Clear
7:51 AM 41.0 °F - 5.0 °F 23% 29.91 in 10.0 mi Calm Calm - N/A   Clear
8:51 AM 46.9 °F - 7.0 °F 20% 29.91 in 10.0 mi NNE 4.6 mph - N/A   Clear
9:51 AM 53.1 °F - 10.0 °F 18% 29.88 in 10.0 mi North 4.6 mph - N/A   Clear
10:51 AM 57.9 °F - 12.0 °F 16% 29.87 in 10.0 mi ENE 3.5 mph - N/A   Clear
11:51 AM 64.0 °F - 8.1 °F 11% 29.82 in 10.0 mi SE 8.1 mph - N/A   Clear
12:51 PM 68.0 °F - 10.0 °F 11% 29.76 in 10.0 mi SE 9.2 mph - N/A   Clear
1:51 PM 72.0 °F - 3.9 °F 7% 29.72 in 10.0 mi ESE 11.5 mph - N/A   Clear
2:51 PM 73.9 °F - 6.1 °F 7% 29.70 in 10.0 mi East 9.2 mph - N/A   Clear
3:51 PM 73.9 °F - 6.1 °F 7% 29.69 in 10.0 mi East 6.9 mph - N/A   Clear
4:51 PM 73.0 °F - 9.0 °F 8% 29.70 in 10.0 mi NE 6.9 mph - N/A   Clear
5:51 PM 66.9 °F - 12.0 °F 12% 29.74 in 10.0 mi Calm Calm - N/A   Clear
6:51 PM 62.1 °F - 8.1 °F 12% 29.79 in 10.0 mi Calm Calm - N/A   Clear
7:51 PM 55.9 °F - 9.0 °F 15% 29.79 in 10.0 mi West 4.6 mph - N/A   Clear
8:51 PM 51.1 °F - 7.0 °F 17% 29.81 in 10.0 mi Calm Calm - N/A   Clear
9:51 PM 51.1 °F - 8.1 °F 18% 29.81 in 10.0 mi West 9.2 mph - N/A   Clear
10:51 PM 48.9 °F - 10.0 °F 21% 29.81 in 10.0 mi North 8.1 mph - N/A   Clear
11:51 PM 48.9 °F - 10.0 °F 21% 29.81 in 10.0 mi NW 4.6 mph - N/A   Clear